Probability
3 3 2 1 0 0 0 0 0 0 0 0 0 0 0 0 0 0 0 0 0 0 0 0 0 0 0 0 0 0 0 0 0 0 0 0 0 0 0 0 0 0 0
4 4 3 2 1 0 0 0 0 0 0 0 0 0 0 0 0 0 0 0 0 0 0 0 0 0 0 0 0 0 0 0 0 0 0 0 0 0 0 0 0 0 0
7 6 5 5 3 1 0 0 0 0 0 0 0 0 0 0 0 0 0 0 0 0 0 0 0 0 0 0 0 0 0 0 0 0 0 0 0 0 0 0 0 0 0
17 16 14 10 8 5 3 1 0 0 0 0 0 0 0 0 0 0 0 0 0 0 0 0 0 0 0 0 0 0 0 0 0 0 0 0 0 0 0 0 0 0 0
31 30 25 18 14 12 8 3 1 0 0 0 0 0 0 0 0 0 0 0 0 0 0 0 0 0 0 0 0 0 0 0 0 0 0 0 0 0 0 0 0 0 0
39 37 32 27 23 19 11 3 1 0 0 0 0 0 0 0 0 0 0 0 0 0 0 0 0 0 0 0 0 0 0 0 0 0 0 0 0 0 0 0 0 0 0
42 37 33 33 31 23 12 5 2 1 0 0 0 0 0 0 0 0 0 0 0 0 0 0 0 0 0 0 0 0 0 0 0 0 0 0 0 0 0 0 0 0 0
42 36 32 35 35 25 15 8 4 1 0 0 0 0 0 0 0 0 0 0 0 0 0 0 0 0 0 0 0 0 0 0 0 0 0 0 0 0 0 0 0 0 0
38 36 33 33 33 25 16 11 6 2 1 1 0 0 0 0 0 0 0 0 0 0 0 0 0 0 0 0 0 0 0 0 0 0 0 0 0 0 0 0 0 0 0
32 34 32 30 27 22 17 12 8 5 3 1 0 0 0 0 0 0 0 0 0 0 0 0 0 0 0 0 0 0 0 0 0 0 0 0 0 0 0 0 0 0 0
26 28 29 27 23 19 16 13 10 7 5 3 1 1 0 0 0 0 0 0 0 0 0 0 0 0 0 0 0 0 0 0 0 0 0 0 0 0 0 0 0 0 0
20 21 23 24 21 16 14 14 12 10 8 6 3 2 0 0 0 0 0 0 0 0 0 0 0 0 1 1 1 0 0 0 0 0 0 0 0 0 0 0 0 0 0
15 16 16 17 16 13 12 13 12 11 8 7 4 1 0 0 0 0 0 0 0 0 0 0 0 0 1 1 1 0 0 0 0 0 0 0 0 0 0 0 0 0 0
9 11 13 12 11 10 10 10 10 8 6 5 3 0 0 0 0 0 0 0 0 0 0 0 0 0 0 0 0 0 0 0 0 0 0 0 0 0 0 0 0 0 0
4 6 9 10 9 8 7 8 8 6 5 3 2 1 0 0 0 0 0 0 0 0 0 0 0 0 0 0 0 0 0 0 0 0 0 0 0 0 0 0 0 0 0
1 2 5 7 7 6 5 5 6 6 5 4 4 3 1 0 0 0 0 0 0 0 0 0 0 0 0 0 0 0 0 0 0 0 0 0 0 0 0 0 0 0 0
0 1 3 4 4 4 3 2 3 3 3 3 3 3 2 0 0 0 0 0 0 0 0 0 0 0 0 0 0 0 0 0 0 0 0 0 0 0 0 0 0 0 0
0 1 2 3 3 3 3 2 1 1 1 1 1 1 1 0 0 0 0 0 0 0 0 0 0 0 0 0 0 0 0 0 0 0 0 0 0 0 0 0 0 0 0
0 1 2 3 3 3 3 2 1 0 0 0 0 0 0 0 0 0 0 0 0 0 0 0 0 0 0 0 0 0 0 0 0 0 0 0 0 0 0 0 0 0 0
0 0 1 2 2 2 2 1 1 0 0 0 0 0 0 0 0 0 0 0 0 0 0 0 0 0 0 0 0 0 0 0 0 0 0 0 0 0 0 0 0 0 0
0 0 0 1 1 1 1 0 0 0 0 0 0 0 0 0 0 0 0 0 0 0 0 0 0 0 0 0 0 0 0 0 0 0 0 0 0 0 0 0 0 0 0
0 0 0 0 0 0 0 0 0 0 0 0 0 0 0 0 0 0 0 0 0 0 0 0 0 0 0 0 0 0 0 0 0 0 0 0 0 0 0 0 0 0 0
0 0 0 0 0 0 0 0 0 0 0 0 0 0 0 0 0 0 0 0 0 0 0 0 0 0 0 0 0 0 0 0 0 0 0 0 0 0 0 0 0 0 0
0 0 0 0 0 0 0 0 0 0 0 0 0 0 0 0 0 0 0 0 0 0 0 0 0 0 0 0 0 0 0 0 0 0 0 0 0 0 0 0 0 0 0
0 0 0 0 0 0 0 0 0 0 0 0 0 0 0 0 0 0 0 0 0 0 0 0 0 0 0 0 0 0 0 0 0 0 0 0 0 0 0 0 0 0 0
0 0 0 0 0 0 0 0 0 0 0 0 0 0 0 0 0 0 0 0 0 0 0 0 0 0 0 0 0 0 0 0 0 0 0 0 0 0 0 0 0 0 0
Wind_Speed
5 5 4 5 7 7 7 5 7 8 8 7 7 7 6 4 6 7 6 10 9 7 6 6 6 6 6 5 5 5 5 5 6 6 6 7 7 7 6 6 5 5 4
5 4 3 3 4 4 6 5 6 5 3 2 3 2 4 4 5 9 8 8 10 8 7 7 6 6 6 5 5 5 5 5 5 5 6 6 6 6 5 5 4 3 3
5 5 4 3 3 3 4 5 6 4 3 2 2 1 2 3 3 7 10 7 6 8 9 8 7 7 6 6 5 5 5 5 5 5 6 5 5 5 5 4 3 2 2
5 4 4 3 3 2 2 3 2 2 2 2 2 3 2 3 2 3 6 8 7 7 8 9 8 7 7 6 6 6 6 6 6 6 6 5 5 5 4 3 3 2 1
4 4 4 3 3 2 2 2 2 2 2 2 3 3 3 4 4 4 5 7 8 9 7 9 9 8 7 7 7 7 7 7 7 7 6 6 5 5 4 3 3 2 2
4 4 5 5 4 2 2 1 2 2 2 2 3 3 3 3 3 3 3 3 7 9 10 9 7 6 8 8 7 7 7 7 7 7 7 6 5 5 4 3 2 2 2
5 5 5 5 5 4 4 3 2 3 2 1 1 1 1 2 3 4 3 2 4 6 11 11 8 6 5 8 8 7 7 7 7 7 7 6 6 5 4 3 2 2 1
6 6 6 5 5 5 6 5 4 3 2 2 2 1 1 2 2 3 3 2 2 4 7 10 9 9 8 5 7 9 7 7 8 8 7 7 6 5 4 3 3 2 2
5 6 6 6 6 6 6 7 7 6 4 2 2 3 3 3 2 2 3 3 2 2 3 3 6 9 10 8 7 9 9 8 8 8 8 7 6 6 5 4 3 2 2
4 5 5 6 6 5 6 7 7 6 6 4 2 2 2 3 3 1 2 2 3 3 2 2 3 5 8 8 9 12 12 10 8 9 8 7 7 6 5 4 3 3 3
3 3 5 5 5 5 6 7 7 7 6 6 4 3 2 1 1 2 2 1 1 0 0 0 1 2 5 8 8 12 14 12 9 8 8 8 7 6 5 4 4 3 4
2 2 2 3 4 4 6 7 7 9 7 7 5 5 4 4 3 3 2 1 1 1 2 1 1 1 2 6 10 16 15 13 10 9 7 7 7 7 6 5 4 4 4
2 2 1 1 2 3 4 5 6 6 7 8 7 6 5 5 4 4 3 2 1 0 1 2 1 1 1 3 6 16 14 13 11 10 8 7 7 6 6 5 4 4 3
3 3 2 1 0 1 2 3 4 6 6 7 8 7 5 5 4 4 5 4 3 2 1 1 1 1 1 2 6 10 8 12 11 10 9 8 7 6 5 4 2 2 2
4 4 3 3 2 2 1 0 2 3 4 5 6 7 5 5 5 4 4 4 5 4 4 3 2 1 1 2 6 4 5 10 11 10 9 8 7 6 5 3 2 1 1
5 4 4 4 3 3 2 2 1 1 2 3 3 4 4 4 4 4 4 4 4 4 3 3 3 2 2 3 5 3 3 10 10 9 8 7 6 5 5 4 2 1 0
6 6 6 5 5 4 3 3 2 2 2 2 2 3 4 4 4 4 4 4 3 3 3 2 2 2 2 2 3 2 4 5 5 8 8 7 6 6 5 4 3 2 1
7 7 6 7 7 7 6 4 4 3 3 2 2 3 3 4 4 4 4 4 3 4 3 3 2 2 2 3 3 3 3 5 5 8 8 8 8 7 7 6 5 4 4
7 7 7 7 7 7 7 6 5 3 3 3 3 3 3 4 4 3 4 4 3 3 3 3 3 2 2 2 2 2 4 4 6 8 10 10 10 11 10 9 8 7 6
7 7 7 8 8 8 8 8 6 4 4 4 3 3 3 3 4 4 4 4 4 3 3 3 3 3 2 2 3 3 4 4 5 6 8 9 12 14 13 12 10 10 9
9 8 7 8 8 7 9 9 7 4 3 4 4 3 3 4 5 4 3 3 4 3 3 3 3 3 3 3 3 3 5 5 5 5 6 6 6 7 7 10 11 12 11
7 7 7 7 8 8 13 13 9 4 3 3 3 3 3 4 4 6 7 6 4 4 4 3 3 3 4 4 4 5 6 6 4 3 6 6 6 7 6 6 10 13 13
6 6 6 6 6 8 14 14 13 5 2 3 3 2 2 4 4 3 5 6 5 4 3 4 3 4 4 5 6 6 5 5 5 5 7 6 6 7 5 7 12 13 14
5 5 5 6 5 9 15 15 15 4 2 3 3 3 3 3 5 4 2 5 6 5 3 2 3 3 3 4 5 6 8 8 7 5 5 5 4 5 6 5 11 13 12
4 4 4 5 6 7 14 15 14 4 2 3 3 4 4 4 6 5 4 6 6 5 9 11 11 10 11 10 8 7 7 8 6 3 2 4 4 4 4 3 6 11 11
4 3 3 4 5 5 11 14 13 4 3 3 3 4 7 6 7 6 4 6 7 5 6 6 7 8 8 8 9 6 6 7 6 3 2 4 5 4 4 2 2 3 4
Wind_Direction
230 239 212 198 196 192 194 198 211 220 215 209 202 198 183 179 148 131 139 148 149 158 166 166 163 155 151 146 140 140 141 141 138 134 135 135 134 133 130 126 121 115 106
219 239 236 216 220 203 181 190 220 241 211 209 221 191 161 168 151 137 146 153 160 164 168 171 170 165 163 162 158 152 151 152 151 148 145 143 143 144 143 140 136 128 120
221 226 239 228 233 233 208 191 216 224 194 197 214 240 174 166 156 150 150 158 163 170 172 175 176 174 172 173 173 167 163 161 160 160 160 157 156 159 160 159 156 151 143
216 225 230 230 228 240 246 195 217 207 186 193 193 203 196 164 179 168 157 162 164 169 176 177 174 176 178 180 178 177 173 171 169 170 168 166 165 167 170 175 179 191 205
227 209 225 225 220 220 243 225 194 197 200 201 209 199 194 173 188 197 194 177 164 161 165 175 173 173 180 183 181 179 177 173 175 176 171 170 171 173 177 186 196 215 230
236 213 214 216 209 203 217 235 221 207 203 200 219 209 193 178 179 187 216 180 164 166 159 164 167 177 181 178 177 176 173 174 175 177 175 174 174 175 180 188 199 219 226
228 226 220 209 200 193 196 203 212 223 218 220 210 255 256 203 195 186 199 191 183 167 156 167 174 167 172 178 173 172 173 173 171 169 171 170 168 169 173 176 185 194 195
217 222 219 212 201 189 191 195 197 202 208 199 161 151 271 295 266 194 179 196 218 172 171 175 171 165 166 164 176 171 167 166 168 165 162 159 158 159 158 159 158 151 136
228 212 217 212 204 194 195 194 194 196 195 209 174 158 167 207 243 279 202 182 208 205 185 174 168 166 163 162 161 165 158 159 164 163 158 155 156 153 151 150 145 138 131
245 215 212 214 203 197 197 196 195 187 179 195 205 190 172 149 157 234 280 206 200 201 188 183 180 171 154 151 162 164 162 162 167 165 162 160 158 155 153 150 144 143 140
268 231 213 209 208 199 198 200 193 187 189 187 183 175 175 156 160 157 223 279 327 285 314 191 167 153 145 147 155 165 164 164 169 170 170 168 167 167 168 164 160 159 154
303 297 248 219 210 207 203 204 199 193 195 191 184 179 171 172 181 169 186 183 215 292 331 352 29 96 120 142 158 162 165 166 170 173 174 174 172 174 175 174 173 176 179
329 322 301 246 223 221 216 211 200 198 200 193 191 192 190 190 167 167 172 175 188 260 0 337 351 60 97 125 147 162 168 169 172 174 175 176 175 177 181 181 183 196 208
337 345 349 338 280 255 241 221 205 202 200 200 203 197 190 190 179 176 173 166 175 203 212 246 340 3 61 105 150 162 169 173 175 177 178 179 177 178 180 180 186 220 241
354 6 15 33 46 40 28 308 201 199 190 195 201 195 192 187 183 185 178 170 167 183 208 203 197 207 141 119 152 172 167 179 176 178 178 178 176 175 174 169 160 122 15
1 8 15 36 46 44 45 48 57 112 166 174 179 184 186 174 168 173 177 173 170 166 185 190 188 179 160 149 162 168 147 164 170 169 171 172 170 169 163 153 145 135 87
10 19 22 28 32 33 35 46 45 61 77 128 148 159 172 165 162 163 159 161 170 167 174 177 167 155 142 155 150 154 143 143 150 159 159 156 152 145 140 131 117 102 79
18 24 25 30 31 27 23 26 34 48 58 72 106 130 135 138 142 147 152 161 162 165 161 161 150 145 152 159 150 155 149 137 129 133 132 128 122 116 108 99 91 82 74
21 26 31 32 30 28 21 18 26 43 60 68 79 99 121 131 137 143 148 147 149 157 147 142 146 139 135 144 130 122 117 113 117 119 111 106 104 98 91 84 79 74 73
22 21 31 33 30 31 21 12 9 31 49 59 71 82 96 119 134 144 146 148 147 144 136 135 140 146 142 145 136 131 119 108 113 115 105 102 97 88 80 76 74 73 73
25 22 29 33 29 28 18 11 2 15 44 57 59 64 86 100 111 122 129 140 146 144 140 145 149 145 148 144 155 146 129 114 101 112 109 103 94 82 69 64 68 74 77
24 21 25 31 34 25 10 13 9 2 31 61 62 54 79 102 110 111 107 110 127 149 160 157 156 159 163 157 145 140 136 133 121 121 108 96 87 79 66 63 71 79 81
26 22 22 24 32 23 13 10 2 351 29 63 64 60 51 68 78 95 115 110 88 90 137 152 156 169 160 162 151 148 147 135 123 131 112 98 90 85 73 67 76 80 81
21 21 21 19 22 25 15 9 357 356 49 69 65 56 47 56 52 49 103 105 81 53 64 113 126 131 123 128 136 139 130 112 102 107 111 107 104 94 83 68 76 82 82
11 21 23 23 24 22 17 12 3 350 47 69 77 72 56 59 42 49 98 112 103 81 71 84 91 93 89 92 108 114 122 125 122 115 103 109 126 115 102 88 82 85 84
7 14 22 30 34 27 22 18 10 3 24 48 57 71 59 50 40 44 105 124 121 118 115 103 92 87 84 85 97 113 129 132 129 125 130 114 148 139 120 118 131 120 92